User: anonymous   Login
Location: Ash Swamp
(41.5170°N, 74.6157°W)
Time: 22:23:50
(UTC+00:00)
Language:

Cosmos 1408 - Orbit

View from above orbital plane
View from above orbital plane
View from above satellite
View from above satellite

Ground track
Ground track

The orbit data is extracted from the following two-line orbital elements,

1 13552U 82092A   20269.88234204 +.00001177 +00000-0 +41582-4 0  9997
2 13552 082.5703 178.1161 0018917 134.9299 225.3479 15.27964838079383
Epoch (UTC): 25 September 2020 21:10:34
Eccentricity: 0.0018917
inclination: 82.5703°
perigee height: 469 km
apogee height: 495 km
right ascension of ascending node: 178.1161°
argument of perigee: 134.9299°
revolutions per day: 15.27964838
mean anomaly at epoch: 225.3479°
orbit number at epoch: 7938

The dashed part of the orbit path shows where the satellite is in the earth's shadow,  

DLR